N24ZG KSAN-KLAX

Flight info

Callsign N24ZG
Flight time 0h 25m
Altitude 10000
Route CWARD2 SLI
Aircraft B737/M-SDE2E3FGHIRWXY/LB1

Departure

Time 2026-04-25 20:03
Airport San Diego International Airport (KSAN)

Arrival

Time 2026-04-25 20:28
Airport Los Angeles International Airport (KLAX)
Time Latitude Longitude Altitude Speed Heading
2026-04-25 19:43 32.73407 -117.17897 19 ft 0 kts 146°
2026-04-25 19:58 32.73395 -117.17901 19 ft 2 kts 203°
2026-04-25 19:59 32.73366 -117.17927 21 ft 6 kts 222°
2026-04-25 19:59 32.73328 -117.17955 22 ft 7 kts 204°
2026-04-25 19:59 32.73275 -117.17974 21 ft 9 kts 195°
2026-04-25 19:59 32.73228 -117.17937 18 ft 9 kts 99°
2026-04-25 20:00 32.73206 -117.17864 19 ft 9 kts 110°
2026-04-25 20:00 32.73192 -117.17818 19 ft 9 kts 107°
2026-04-25 20:00 32.73170 -117.17724 22 ft 9 kts 106°
2026-04-25 20:00 32.73153 -117.17657 20 ft 8 kts 106°
2026-04-25 20:01 32.73118 -117.17566 18 ft 0 kts 139°
2026-04-25 20:02 32.73116 -117.17564 18 ft 3 kts 142°
2026-04-25 20:02 32.73051 -117.17527 19 ft 16 kts 180°
2026-04-25 20:02 32.73027 -117.17602 18 ft 12 kts 284°
2026-04-25 20:03 32.73111 -117.17951 16 ft 90 kts 286°
2026-04-25 20:03 32.73361 -117.18984 156 ft 157 kts 286°
2026-04-25 20:03 32.73731 -117.20314 929 ft 185 kts 287°
2026-04-25 20:03 32.74057 -117.21901 1770 ft 208 kts 289°
2026-04-25 20:04 32.74890 -117.23344 2591 ft 220 kts 307°
2026-04-25 20:04 32.75862 -117.24839 3323 ft 236 kts 305°
2026-04-25 20:04 32.76851 -117.26470 4028 ft 249 kts 304°
2026-04-25 20:04 32.77864 -117.28187 4696 ft 254 kts 303°
2026-04-25 20:05 32.78532 -117.29355 5186 ft 256 kts 302°
2026-04-25 20:05 32.78593 -117.29463 5237 ft 256 kts 303°
2026-04-25 20:05 32.79556 -117.31162 5992 ft 261 kts 303°
2026-04-25 20:05 32.80613 -117.32931 6765 ft 270 kts 305°
2026-04-25 20:06 32.81748 -117.34696 7507 ft 267 kts 305°
2026-04-25 20:06 32.82892 -117.36449 8282 ft 269 kts 304°
2026-04-25 20:06 32.84049 -117.38223 9105 ft 272 kts 303°
2026-04-25 20:06 32.85214 -117.40015 9711 ft 273 kts 302°
2026-04-25 20:07 32.86370 -117.41799 9950 ft 275 kts 302°
2026-04-25 20:07 32.87532 -117.43596 9955 ft 276 kts 302°
2026-04-25 20:07 32.88704 -117.45413 9949 ft 275 kts 302°
2026-04-25 20:07 32.89873 -117.47223 9962 ft 273 kts 302°
2026-04-25 20:08 32.91021 -117.49005 9971 ft 272 kts 302°
2026-04-25 20:08 32.92164 -117.50782 9969 ft 272 kts 302°
2026-04-25 20:08 32.93324 -117.52587 9964 ft 272 kts 302°
2026-04-25 20:08 32.94461 -117.54359 9974 ft 273 kts 302°
2026-04-25 20:09 32.95616 -117.56160 9972 ft 274 kts 302°
2026-04-25 20:09 32.96781 -117.57978 9961 ft 276 kts 302°
2026-04-25 20:09 32.97949 -117.59800 9969 ft 276 kts 302°
2026-04-25 20:09 32.99110 -117.61611 9963 ft 276 kts 302°
2026-04-25 20:10 33.00280 -117.63438 9962 ft 277 kts 302°
2026-04-25 20:10 33.01455 -117.65273 9963 ft 277 kts 302°
2026-04-25 20:10 33.02619 -117.67092 9963 ft 277 kts 302°
2026-04-25 20:10 33.03798 -117.68934 9962 ft 278 kts 302°
2026-04-25 20:11 33.04965 -117.70760 9960 ft 279 kts 302°
2026-04-25 20:11 33.06191 -117.72681 9992 ft 311 kts 304°
2026-04-25 20:11 33.07795 -117.74655 9978 ft 351 kts 314°
2026-04-25 20:11 33.09760 -117.76621 9972 ft 378 kts 317°
2026-04-25 20:12 33.11834 -117.78605 9968 ft 381 kts 317°
2026-04-25 20:12 33.13890 -117.80613 9955 ft 381 kts 316°
2026-04-25 20:12 33.15916 -117.82647 9945 ft 380 kts 316°
2026-04-25 20:12 33.16579 -117.83321 9946 ft 380 kts 316°
2026-04-25 20:13 33.20126 -117.86464 10029 ft 384 kts 327°
2026-04-25 20:13 33.22543 -117.87820 10053 ft 390 kts 337°
2026-04-25 20:13 33.25098 -117.88752 10055 ft 375 kts 340°
2026-04-25 20:13 33.27546 -117.89564 10042 ft 351 kts 341°
2026-04-25 20:14 33.29821 -117.90304 10032 ft 330 kts 341°
2026-04-25 20:14 33.31967 -117.91009 10030 ft 311 kts 340°
2026-04-25 20:14 33.34001 -117.91687 10037 ft 299 kts 340°
2026-04-25 20:14 33.36020 -117.92370 9924 ft 301 kts 340°
2026-04-25 20:15 33.38015 -117.93050 9740 ft 298 kts 340°
2026-04-25 20:15 33.39993 -117.93724 9547 ft 286 kts 340°
2026-04-25 20:15 33.41847 -117.94355 9350 ft 269 kts 340°
2026-04-25 20:15 33.43596 -117.94956 9242 ft 257 kts 339°
2026-04-25 20:16 33.45303 -117.95539 9135 ft 257 kts 340°
2026-04-25 20:16 33.47037 -117.96137 8938 ft 258 kts 340°
2026-04-25 20:16 33.48750 -117.96729 8731 ft 257 kts 340°
2026-04-25 20:16 33.50450 -117.97313 8528 ft 255 kts 341°
2026-04-25 20:17 33.52148 -117.97893 8349 ft 252 kts 340°
2026-04-25 20:17 33.53803 -117.98465 8233 ft 245 kts 340°
2026-04-25 20:17 33.55456 -117.99036 8098 ft 248 kts 340°
2026-04-25 20:17 33.57135 -117.99615 7969 ft 251 kts 341°
2026-04-25 20:18 33.58800 -118.00179 7803 ft 251 kts 341°
2026-04-25 20:18 33.60479 -118.00757 7642 ft 250 kts 341°
2026-04-25 20:18 33.62159 -118.01339 7489 ft 250 kts 341°
2026-04-25 20:18 33.63816 -118.01910 7331 ft 248 kts 341°
2026-04-25 20:19 33.65484 -118.02480 7189 ft 245 kts 341°
2026-04-25 20:19 33.67102 -118.03039 7012 ft 243 kts 341°
2026-04-25 20:19 33.68733 -118.03610 6864 ft 244 kts 341°
2026-04-25 20:19 33.70366 -118.04161 6686 ft 246 kts 341°
2026-04-25 20:20 33.72010 -118.04731 6512 ft 245 kts 341°
2026-04-25 20:20 33.73654 -118.05301 6362 ft 243 kts 341°
2026-04-25 20:20 33.75269 -118.05859 6182 ft 242 kts 341°
2026-04-25 20:20 33.76878 -118.06418 6039 ft 241 kts 341°
2026-04-25 20:21 33.78482 -118.06976 5894 ft 240 kts 342°
2026-04-25 20:21 33.80096 -118.07534 5739 ft 239 kts 341°
2026-04-25 20:21 33.81601 -118.08057 5611 ft 233 kts 342°
2026-04-25 20:21 33.83138 -118.08589 5465 ft 229 kts 342°
2026-04-25 20:22 33.84681 -118.09124 5372 ft 228 kts 342°
2026-04-25 20:22 33.85181 -118.09297 5332 ft 228 kts 343°
2026-04-25 20:22 33.87725 -118.10181 5123 ft 229 kts 343°
2026-04-25 20:22 33.89271 -118.10701 5033 ft 232 kts 347°
2026-04-25 20:23 33.90882 -118.10914 4942 ft 234 kts 356°
2026-04-25 20:23 33.92518 -118.11039 4734 ft 238 kts 349°
2026-04-25 20:23 33.93998 -118.11917 4389 ft 238 kts 322°
2026-04-25 20:23 33.95243 -118.13188 3982 ft 230 kts 307°
2026-04-25 20:24 33.95893 -118.14870 3674 ft 216 kts 278°
2026-04-25 20:24 33.95958 -118.16028 3579 ft 204 kts 264°
2026-04-25 20:24 33.95845 -118.17669 3487 ft 192 kts 261°
2026-04-25 20:24 33.95682 -118.19268 3249 ft 190 kts 259°
2026-04-25 20:25 33.95522 -118.20846 2999 ft 189 kts 260°
2026-04-25 20:25 33.95364 -118.22410 2740 ft 190 kts 259°
2026-04-25 20:25 33.95207 -118.23958 2486 ft 184 kts 261°
2026-04-25 20:25 33.95053 -118.25477 2246 ft 180 kts 260°
2026-04-25 20:26 33.94900 -118.26963 2021 ft 177 kts 261°
2026-04-25 20:26 33.94761 -118.28424 1792 ft 172 kts 259°
2026-04-25 20:26 33.94602 -118.29826 1548 ft 167 kts 260°
2026-04-25 20:26 33.94461 -118.31187 1296 ft 162 kts 261°
2026-04-25 20:27 33.94344 -118.32510 1084 ft 156 kts 261°
2026-04-25 20:27 33.94202 -118.33780 953 ft 153 kts 260°
2026-04-25 20:27 33.94074 -118.35064 696 ft 155 kts 261°
2026-04-25 20:27 33.93937 -118.36364 475 ft 158 kts 261°
2026-04-25 20:28 33.93805 -118.37629 269 ft 142 kts 261°
2026-04-25 20:28 33.93691 -118.38746 114 ft 125 kts 258°
2026-04-25 20:28 33.93598 -118.39598 111 ft 79 kts 263°
2026-04-25 20:28 33.93551 -118.39993 114 ft 34 kts 256°
2026-04-25 20:29 33.93486 -118.40186 111 ft 13 kts 222°
2026-04-25 20:29 33.93445 -118.40194 110 ft 0 kts 159°
2026-04-25 20:30 33.93425 -118.40161 109 ft 9 kts 107°
2026-04-25 20:30 33.93430 -118.40076 109 ft 10 kts 82°
2026-04-25 20:30 33.93439 -118.39989 109 ft 11 kts 83°
2026-04-25 20:30 33.93448 -118.39893 108 ft 12 kts 83°
2026-04-25 20:31 33.93459 -118.39787 108 ft 14 kts 83°
2026-04-25 20:31 33.93471 -118.39664 108 ft 15 kts 84°
2026-04-25 20:31 33.93483 -118.39546 108 ft 14 kts 83°
2026-04-25 20:31 33.93493 -118.39432 108 ft 13 kts 95°
2026-04-25 20:32 33.93463 -118.39391 107 ft 5 kts 174°
2026-04-25 20:32 33.93434 -118.39424 106 ft 8 kts 256°
2026-04-25 20:32 33.93425 -118.39497 107 ft 9 kts 263°
2026-04-25 20:32 33.93424 -118.39510 107 ft 0 kts 263°